Weather in Pervouralsk

Russia / Sverdlovsk Oblast     56°54′21″N   59°56′35″E
temp.,
°C
wind,
m/s
gust,
m/s
humid.,
%
clouds,
%
prec.,
mm/h
press.,
hPa
HPBL,
m
4 march, thu
thu423:00−8sw269794 0.1 998121
02:00−8sw2796100 0.0 997173
05:00−9sw269789 0.0 996109
08:00−9wsw399665 0.1 996253
11:00−6w598983 0.3 997791
14:00−6w5984100 0.1 9971050
17:00−6wsw5886100 0.3 9971009
20:00−10sw3109493 0.1 998311
5 march, fri
fri523:00−10ssw3129392 0.1 997446
02:00−8s31196100 0.2 992699
05:00−6sw41295100 1.6 9911013
08:00−7wsw51293100 0.3 992950
11:00−5wsw81386100 0.6 9941080
14:00−4wsw71285100 0.1 9961060
17:00−6w61187100 0.3 998942
20:00−8wsw5129094 0.1 1001698
6 march, sat
sat623:00−10w5129294 0.1 1004600
02:00−14w4109591 0.0 1006397
05:00−17w4119795 0.1 1008285
08:00−18wsw4129798 0.0 1008306
11:00−11wsw6128898 0.1 1008785
14:00−9w61182100 0.1 10081304
17:00−10w51082100 0.2 10091180
20:00−14w3895100 0.1 1009230
7 march, sun
sun723:00−16w229898 0.1 101034
02:00−20w1110084 0.0 100920
05:00−21w1110064 0.0 100920
08:00−21sw119949 0.0 100820
11:00−13wsw129075 0.1 1008255
14:00−10w248298 0.1 1008777
17:00−10w468399 0.4 1008915
20:00−16w379398 0.1 1010138
8 march, mon
mon823:00−18w389890 0.1 1013213
02:00−22wsw259988 0.0 101385
05:00−24ssw229950 0.0 101220
08:00−20sse259598 0.0 1010141
11:00−15se4993100 0.1 1007413
14:00−9s4888100 0.4 1004923
17:00−7ssw5987100 0.8 10021050
20:00−9s31195100 0.3 1001766